Year,Month,Day,Hour,Minute,Value (Times are PST for temperature in C)
2010,05,07,00,00,5.90
2010,05,07,00,01,5.90
2010,05,07,00,02,5.90
2010,05,07,00,03,5.90
2010,05,07,00,04,5.80
2010,05,07,00,05,5.80
2010,05,07,00,06,5.80
2010,05,07,00,07,5.80
2010,05,07,00,08,5.80
2010,05,07,00,09,5.80
2010,05,07,00,10,5.80
2010,05,07,00,11,5.80
2010,05,07,00,12,5.80
2010,05,07,00,13,5.70
2010,05,07,00,14,5.70
2010,05,07,00,15,5.70
2010,05,07,00,16,5.70
2010,05,07,00,17,5.70
2010,05,07,00,18,5.70
2010,05,07,00,19,5.70
2010,05,07,00,20,5.70
2010,05,07,00,21,5.70
2010,05,07,00,22,5.70
2010,05,07,00,23,5.60
2010,05,07,00,24,5.60
2010,05,07,00,25,5.60
2010,05,07,00,26,5.60
2010,05,07,00,27,5.60
2010,05,07,00,28,5.60
2010,05,07,00,29,5.60
2010,05,07,00,30,5.60
2010,05,07,00,31,5.60
2010,05,07,00,32,5.60
2010,05,07,00,33,5.60
2010,05,07,00,34,5.60
2010,05,07,00,35,5.60
2010,05,07,00,36,5.60
2010,05,07,00,37,5.60
2010,05,07,00,38,5.60
2010,05,07,00,39,5.60
2010,05,07,00,40,5.50
2010,05,07,00,41,5.50
2010,05,07,00,42,5.50
2010,05,07,00,43,5.50
2010,05,07,00,44,5.50
2010,05,07,00,45,5.50
2010,05,07,00,46,5.50
2010,05,07,00,47,5.50
2010,05,07,00,48,5.50
2010,05,07,00,49,5.50
2010,05,07,00,50,5.40
2010,05,07,00,51,5.40
2010,05,07,00,52,5.40
2010,05,07,00,53,5.40
2010,05,07,00,54,5.40
2010,05,07,00,55,5.40
2010,05,07,00,56,5.40
2010,05,07,00,57,5.40
2010,05,07,00,58,5.40
2010,05,07,00,59,5.40
2010,05,07,01,00,5.40
2010,05,07,01,01,5.40
2010,05,07,01,02,5.40
2010,05,07,01,03,5.40
2010,05,07,01,04,5.40
2010,05,07,01,05,5.40
2010,05,07,01,06,5.40
2010,05,07,01,07,5.40
2010,05,07,01,08,5.40
2010,05,07,01,09,5.40
2010,05,07,01,10,5.40
2010,05,07,01,11,5.40
2010,05,07,01,12,5.40
2010,05,07,01,13,5.40
2010,05,07,01,14,5.40
2010,05,07,01,15,5.40
2010,05,07,01,16,5.40
2010,05,07,01,17,5.40
2010,05,07,01,18,5.40
2010,05,07,01,19,5.40
2010,05,07,01,20,5.40
2010,05,07,01,21,5.40
2010,05,07,01,22,5.40
2010,05,07,01,23,5.40
2010,05,07,01,24,5.40
2010,05,07,01,25,5.40
2010,05,07,01,26,5.40
2010,05,07,01,27,5.40
2010,05,07,01,28,5.40
2010,05,07,01,29,5.30
2010,05,07,01,30,5.30
2010,05,07,01,31,5.30
2010,05,07,01,32,5.30
2010,05,07,01,33,5.30
2010,05,07,01,34,5.30
2010,05,07,01,35,5.30
2010,05,07,01,36,5.30
2010,05,07,01,37,5.30
2010,05,07,01,38,5.30
2010,05,07,01,39,5.30
2010,05,07,01,40,5.30
2010,05,07,01,41,5.30
2010,05,07,01,42,5.30
2010,05,07,01,43,5.30
2010,05,07,01,44,5.30
2010,05,07,01,49,5.30
2010,05,07,01,50,5.30
2010,05,07,01,51,5.30
2010,05,07,01,52,5.30
2010,05,07,01,53,5.30
2010,05,07,01,54,5.30
2010,05,07,01,55,5.30
2010,05,07,01,56,5.30
2010,05,07,01,57,5.30
2010,05,07,01,58,5.30
2010,05,07,01,59,5.30
2010,05,07,02,00,5.30
2010,05,07,02,01,5.30
2010,05,07,02,02,5.30
2010,05,07,02,03,5.30
2010,05,07,02,04,5.30
2010,05,07,02,05,5.30
2010,05,07,02,06,5.30
2010,05,07,02,07,5.30
2010,05,07,02,08,5.30
2010,05,07,02,09,5.30
2010,05,07,02,10,5.30
2010,05,07,02,11,5.30
2010,05,07,02,12,5.30
2010,05,07,02,13,5.30
2010,05,07,02,14,5.30
2010,05,07,02,15,5.30
2010,05,07,02,16,5.30
2010,05,07,02,17,5.30
2010,05,07,02,18,5.30
2010,05,07,02,19,5.30
2010,05,07,02,20,5.30
2010,05,07,02,21,5.30
2010,05,07,02,22,5.30
2010,05,07,02,23,5.30
2010,05,07,02,24,5.30
2010,05,07,02,25,5.30
2010,05,07,02,26,5.30
2010,05,07,02,27,5.30
2010,05,07,02,28,5.30
2010,05,07,02,29,5.30
2010,05,07,02,30,5.30
2010,05,07,02,31,5.30
2010,05,07,02,32,5.30
2010,05,07,02,33,5.30
2010,05,07,02,34,5.30
2010,05,07,02,35,5.30
2010,05,07,02,36,5.30
2010,05,07,02,37,5.30
2010,05,07,02,38,5.30
2010,05,07,02,39,5.20
2010,05,07,02,40,5.20
2010,05,07,02,41,5.20
2010,05,07,02,42,5.20
2010,05,07,02,43,5.20
2010,05,07,02,44,5.20
2010,05,07,02,45,5.20
2010,05,07,02,46,5.20
2010,05,07,02,47,5.20
2010,05,07,02,48,5.20
2010,05,07,02,49,5.20
2010,05,07,02,50,5.20
2010,05,07,02,51,5.20
2010,05,07,02,52,5.20
2010,05,07,02,53,5.20
2010,05,07,02,54,5.20
2010,05,07,02,55,5.20
2010,05,07,02,56,5.20
2010,05,07,02,57,5.20
2010,05,07,02,58,5.20
2010,05,07,02,59,5.20
2010,05,07,03,00,5.20
2010,05,07,03,01,5.20
2010,05,07,03,02,5.20
2010,05,07,03,03,5.20
2010,05,07,03,04,5.20
2010,05,07,03,05,5.20
2010,05,07,03,06,5.20
2010,05,07,03,07,5.20
2010,05,07,03,08,5.20
2010,05,07,03,09,5.10
2010,05,07,03,10,5.10
2010,05,07,03,11,5.10
2010,05,07,03,12,5.10
2010,05,07,03,13,5.10
2010,05,07,03,14,5.10
2010,05,07,03,15,5.10
2010,05,07,03,16,5.10
2010,05,07,03,17,5.10
2010,05,07,03,18,5.10
2010,05,07,03,19,5.10
2010,05,07,03,20,5.10
2010,05,07,03,21,5.10
2010,05,07,03,22,5.10
2010,05,07,03,23,5.10
2010,05,07,03,24,5.10
2010,05,07,03,25,5.10
2010,05,07,03,26,5.10
2010,05,07,03,27,5.10
2010,05,07,03,28,5.10
2010,05,07,03,29,5.10
2010,05,07,03,30,5.10
2010,05,07,03,31,5.10
2010,05,07,03,32,5.10
2010,05,07,03,33,5.10
2010,05,07,03,34,5.10
2010,05,07,03,35,5.10
2010,05,07,03,36,5.10
2010,05,07,03,37,5.10
2010,05,07,03,38,5.10
2010,05,07,03,39,5.10
2010,05,07,03,40,5.10
2010,05,07,03,41,5.10
2010,05,07,03,42,5.10
2010,05,07,03,43,5.10
2010,05,07,03,44,5.10
2010,05,07,03,45,5.10
2010,05,07,03,46,5.10
2010,05,07,03,47,5.10
2010,05,07,03,48,5.10
2010,05,07,03,49,5.10
2010,05,07,03,50,5.10
2010,05,07,03,51,5.10
2010,05,07,03,52,5.10
2010,05,07,03,53,5.10
2010,05,07,03,54,5.10
2010,05,07,03,55,5.10
2010,05,07,03,56,5.10
2010,05,07,03,57,5.10
2010,05,07,03,58,5.10
2010,05,07,03,59,5.10
2010,05,07,04,00,5.10
2010,05,07,04,01,5.10
2010,05,07,04,02,5.10
2010,05,07,04,03,5.10
2010,05,07,04,04,5.00
2010,05,07,04,05,5.00
2010,05,07,04,06,5.00
2010,05,07,04,07,5.00
2010,05,07,04,08,5.00
2010,05,07,04,09,5.00
2010,05,07,04,10,5.00
2010,05,07,04,11,5.00
2010,05,07,04,12,5.00
2010,05,07,04,13,5.00
2010,05,07,04,14,5.00
2010,05,07,04,15,5.00
2010,05,07,04,16,5.00
2010,05,07,04,17,5.00
2010,05,07,04,18,5.00
2010,05,07,04,19,5.00
2010,05,07,04,20,5.00
2010,05,07,04,21,5.00
2010,05,07,04,22,4.90
2010,05,07,04,23,4.90
2010,05,07,04,24,4.90
2010,05,07,04,25,4.90
2010,05,07,04,26,4.90
2010,05,07,04,27,4.90
2010,05,07,04,28,4.90
2010,05,07,04,29,4.90
2010,05,07,04,30,4.90
2010,05,07,04,31,4.90
2010,05,07,04,32,4.90
2010,05,07,04,33,4.80
2010,05,07,04,34,4.80
2010,05,07,04,35,4.80
2010,05,07,04,36,4.80
2010,05,07,04,37,4.80
2010,05,07,04,38,4.80
2010,05,07,04,39,4.80
2010,05,07,04,40,4.80
2010,05,07,04,41,4.80
2010,05,07,04,42,4.80
2010,05,07,04,43,4.80
2010,05,07,04,44,4.80
2010,05,07,04,45,4.80
2010,05,07,04,46,4.80
2010,05,07,04,47,4.80
2010,05,07,04,48,4.80
2010,05,07,04,49,4.80
2010,05,07,04,50,4.80
2010,05,07,04,51,4.80
2010,05,07,04,52,4.80
2010,05,07,04,53,4.80
2010,05,07,04,54,4.80
2010,05,07,04,55,4.80
2010,05,07,04,56,4.80
2010,05,07,04,57,4.80
2010,05,07,04,58,4.80
2010,05,07,04,59,4.80
2010,05,07,05,00,4.80
2010,05,07,05,01,4.80
2010,05,07,05,02,4.80
2010,05,07,05,03,4.80
2010,05,07,05,04,4.80
2010,05,07,05,05,4.80
2010,05,07,05,06,4.80
2010,05,07,05,07,4.80
2010,05,07,05,08,4.80
2010,05,07,05,09,4.80
2010,05,07,05,10,4.80
2010,05,07,05,11,4.80
2010,05,07,05,12,4.80
2010,05,07,05,13,4.80
2010,05,07,05,14,4.80
2010,05,07,05,15,4.80
2010,05,07,05,16,4.80
2010,05,07,05,17,4.80
2010,05,07,05,18,4.80
2010,05,07,05,19,4.80
2010,05,07,05,20,4.80
2010,05,07,05,21,4.80
2010,05,07,05,22,4.80
2010,05,07,05,23,4.80
2010,05,07,05,24,4.80
2010,05,07,05,25,4.80
2010,05,07,05,26,4.80
2010,05,07,05,27,4.80
2010,05,07,05,28,4.80
2010,05,07,05,29,4.80
2010,05,07,05,30,4.80
2010,05,07,05,31,4.80
2010,05,07,05,32,4.80
2010,05,07,05,33,4.80
2010,05,07,05,34,4.80
2010,05,07,05,35,4.80
2010,05,07,05,36,4.80
2010,05,07,05,37,4.80
2010,05,07,05,38,4.80
2010,05,07,05,39,4.80
2010,05,07,05,40,4.80
2010,05,07,05,41,4.80
2010,05,07,05,42,4.80
2010,05,07,05,43,4.80
2010,05,07,05,44,4.80
2010,05,07,05,45,4.80
2010,05,07,05,46,4.80
2010,05,07,05,47,4.80
2010,05,07,05,48,4.80
2010,05,07,05,49,4.80
2010,05,07,05,50,4.80
2010,05,07,05,51,4.80
2010,05,07,05,52,4.90
2010,05,07,05,53,4.90
2010,05,07,05,54,4.90
2010,05,07,05,55,4.90
2010,05,07,05,56,4.90
2010,05,07,05,57,4.90
2010,05,07,05,58,4.90
2010,05,07,05,59,4.90
2010,05,07,06,00,4.90
2010,05,07,06,01,4.90
2010,05,07,06,02,4.90
2010,05,07,06,03,4.90
2010,05,07,06,04,4.90
2010,05,07,06,05,5.00
2010,05,07,06,06,5.00
2010,05,07,06,07,5.00
2010,05,07,06,08,5.00
2010,05,07,06,09,5.00
2010,05,07,06,10,5.00
2010,05,07,06,11,5.10
2010,05,07,06,12,5.10
2010,05,07,06,13,5.10
2010,05,07,06,14,5.10
2010,05,07,06,15,5.10
2010,05,07,06,16,5.10
2010,05,07,06,17,5.10
2010,05,07,06,18,5.10
2010,05,07,06,19,5.10
2010,05,07,06,20,5.10
2010,05,07,06,21,5.10
2010,05,07,06,22,5.10
2010,05,07,06,23,5.10
2010,05,07,06,24,5.10
2010,05,07,06,25,5.10
2010,05,07,06,26,5.10
2010,05,07,06,27,5.20
2010,05,07,06,28,5.20
2010,05,07,06,29,5.20
2010,05,07,06,30,5.20
2010,05,07,06,31,5.20
2010,05,07,06,32,5.20
2010,05,07,06,33,5.20
2010,05,07,06,34,5.20
2010,05,07,06,35,5.20
2010,05,07,06,36,5.20
2010,05,07,06,37,5.20
2010,05,07,06,38,5.20
2010,05,07,06,39,5.20
2010,05,07,06,40,5.20
2010,05,07,06,41,5.20
2010,05,07,06,42,5.20
2010,05,07,06,43,5.30
2010,05,07,06,44,5.30
2010,05,07,06,45,5.30
2010,05,07,06,46,5.30
2010,05,07,06,47,5.30
2010,05,07,06,48,5.30
2010,05,07,06,49,5.30
2010,05,07,06,50,5.30
2010,05,07,06,51,5.30
2010,05,07,06,52,5.30
2010,05,07,06,53,5.30
2010,05,07,06,54,5.30
2010,05,07,06,55,5.30
2010,05,07,06,56,5.30
2010,05,07,06,57,5.30
2010,05,07,06,58,5.40
2010,05,07,06,59,5.40
2010,05,07,07,00,5.40
2010,05,07,07,01,5.40
2010,05,07,07,02,5.40
2010,05,07,07,03,5.40
2010,05,07,07,04,5.40
2010,05,07,07,05,5.50
2010,05,07,07,06,5.50
2010,05,07,07,07,5.50
2010,05,07,07,08,5.60
2010,05,07,07,09,5.60
2010,05,07,07,10,5.60
2010,05,07,07,11,5.60
2010,05,07,07,12,5.70
2010,05,07,07,13,5.70
2010,05,07,07,14,5.70
2010,05,07,07,15,5.70
2010,05,07,07,16,5.70
2010,05,07,07,17,5.80
2010,05,07,07,18,5.80
2010,05,07,07,19,5.80
2010,05,07,07,20,5.80
2010,05,07,07,21,5.80
2010,05,07,07,22,5.90
2010,05,07,07,23,5.90
2010,05,07,07,24,5.90
2010,05,07,07,25,5.90
2010,05,07,07,26,5.90
2010,05,07,07,27,6.00
2010,05,07,07,28,6.00
2010,05,07,07,29,6.00
2010,05,07,07,30,6.00
2010,05,07,07,31,6.10
2010,05,07,07,32,6.10
2010,05,07,07,33,6.10
2010,05,07,07,34,6.10
2010,05,07,07,35,6.10
2010,05,07,07,36,6.20
2010,05,07,07,37,6.20
2010,05,07,07,38,6.20
2010,05,07,07,39,6.20
2010,05,07,07,40,6.20
2010,05,07,07,41,6.20
2010,05,07,07,42,6.30
2010,05,07,07,43,6.30
2010,05,07,07,44,6.30
2010,05,07,07,45,6.30
2010,05,07,07,46,6.30
2010,05,07,07,47,6.40
2010,05,07,07,48,6.40
2010,05,07,07,49,6.40
2010,05,07,07,50,6.50
2010,05,07,07,51,6.50
2010,05,07,07,52,6.60
2010,05,07,07,53,6.60
2010,05,07,07,54,6.70
2010,05,07,07,55,6.70
2010,05,07,07,56,6.70
2010,05,07,07,57,6.80
2010,05,07,07,58,6.80
2010,05,07,07,59,6.90
2010,05,07,08,00,7.00
2010,05,07,08,01,7.10
2010,05,07,08,02,7.10
2010,05,07,08,03,7.20
2010,05,07,08,04,7.20
2010,05,07,08,05,7.30
2010,05,07,08,06,7.40
2010,05,07,08,07,7.50
2010,05,07,08,08,7.60
2010,05,07,08,09,7.70
2010,05,07,08,10,7.80
2010,05,07,08,11,7.80
2010,05,07,08,12,7.90
2010,05,07,08,13,7.90
2010,05,07,08,14,8.00
2010,05,07,08,15,8.00
2010,05,07,08,16,8.10
2010,05,07,08,17,8.10
2010,05,07,08,18,8.10
2010,05,07,08,19,8.20
2010,05,07,08,20,8.20
2010,05,07,08,21,8.20
2010,05,07,08,22,8.30
2010,05,07,08,23,8.30
2010,05,07,08,24,8.30
2010,05,07,08,25,8.30
2010,05,07,08,26,8.40
2010,05,07,08,27,8.40
2010,05,07,08,28,8.40
2010,05,07,08,29,8.40
2010,05,07,08,30,8.40
2010,05,07,08,31,8.40
2010,05,07,08,32,8.30
2010,05,07,08,33,8.40
2010,05,07,08,34,8.40
2010,05,07,08,35,8.40
2010,05,07,08,36,8.40
2010,05,07,08,37,8.50
2010,05,07,08,38,8.50
2010,05,07,08,39,8.50
2010,05,07,08,40,8.60
2010,05,07,08,41,8.60
2010,05,07,08,42,8.60
2010,05,07,08,43,8.70
2010,05,07,08,44,8.70
2010,05,07,08,45,8.80
2010,05,07,08,46,8.80
2010,05,07,08,47,8.80
2010,05,07,08,48,8.90
2010,05,07,08,49,8.90
2010,05,07,08,50,9.00
2010,05,07,08,51,9.00
2010,05,07,08,52,9.00
2010,05,07,08,53,9.00
2010,05,07,08,54,9.00
2010,05,07,08,55,9.10
2010,05,07,08,56,9.10
2010,05,07,08,57,9.20
2010,05,07,08,58,9.20
2010,05,07,08,59,9.20
2010,05,07,09,00,9.30
2010,05,07,09,01,9.30
2010,05,07,09,02,9.40
2010,05,07,09,03,9.40
2010,05,07,09,04,9.40
2010,05,07,09,05,9.40
2010,05,07,09,06,9.40
2010,05,07,09,07,9.50
2010,05,07,09,08,9.50
2010,05,07,09,09,9.60
2010,05,07,09,10,9.60
2010,05,07,09,11,9.60
2010,05,07,09,12,9.60
2010,05,07,09,13,9.60
2010,05,07,09,14,9.60
2010,05,07,09,15,9.60
2010,05,07,09,16,9.60
2010,05,07,09,17,9.60
2010,05,07,09,18,9.60
2010,05,07,09,19,9.60
2010,05,07,09,20,9.70
2010,05,07,09,21,9.70
2010,05,07,09,22,9.70
2010,05,07,09,23,9.70
2010,05,07,09,24,9.70
2010,05,07,09,25,9.80
2010,05,07,09,26,9.80
2010,05,07,09,27,9.80
2010,05,07,09,28,9.80
2010,05,07,09,29,9.80
2010,05,07,09,30,9.80
2010,05,07,09,31,9.80
2010,05,07,09,32,9.80
2010,05,07,09,33,9.80
2010,05,07,09,34,9.80
2010,05,07,09,35,9.80
2010,05,07,09,36,9.80
2010,05,07,09,37,9.80
2010,05,07,09,38,9.80
2010,05,07,09,39,9.80
2010,05,07,09,40,9.90
2010,05,07,09,41,9.90
2010,05,07,09,42,9.90
2010,05,07,09,43,10.00
2010,05,07,09,44,10.10
2010,05,07,09,45,10.10
2010,05,07,09,46,10.30
2010,05,07,09,47,10.30
2010,05,07,09,48,10.40
2010,05,07,09,49,10.40
2010,05,07,09,50,10.50
2010,05,07,09,51,10.50
2010,05,07,09,52,10.60
2010,05,07,09,53,10.60
2010,05,07,09,54,10.60
2010,05,07,09,55,10.60
2010,05,07,09,56,10.70
2010,05,07,09,57,10.70
2010,05,07,09,58,10.70
2010,05,07,09,59,10.70
2010,05,07,10,00,10.70
2010,05,07,10,01,10.70
2010,05,07,10,02,10.70
2010,05,07,10,03,10.70
2010,05,07,10,04,10.70
2010,05,07,10,05,10.80
2010,05,07,10,06,10.80
2010,05,07,10,07,10.80
2010,05,07,10,08,10.90
2010,05,07,10,09,10.90
2010,05,07,10,10,11.00
2010,05,07,10,11,11.10
2010,05,07,10,12,11.20
2010,05,07,10,13,11.20
2010,05,07,10,14,11.20
2010,05,07,10,15,11.20
2010,05,07,10,16,11.20
2010,05,07,10,17,11.20
2010,05,07,10,18,11.30
2010,05,07,10,19,11.30
2010,05,07,10,20,11.40
2010,05,07,10,21,11.40
2010,05,07,10,22,11.50
2010,05,07,10,23,11.60
2010,05,07,10,24,11.60
2010,05,07,10,25,11.70
2010,05,07,10,26,11.80
2010,05,07,10,27,11.80
2010,05,07,10,28,11.80
2010,05,07,10,29,11.80
2010,05,07,10,30,11.80
2010,05,07,10,31,11.90
2010,05,07,10,32,12.00
2010,05,07,10,33,12.00
2010,05,07,10,34,12.00
2010,05,07,10,35,12.10
2010,05,07,10,36,12.10
2010,05,07,10,37,12.20
2010,05,07,10,38,12.20
2010,05,07,10,39,12.20
2010,05,07,10,40,12.20
2010,05,07,10,41,12.20
2010,05,07,10,42,12.20
2010,05,07,10,43,12.20
2010,05,07,10,44,12.30
2010,05,07,10,45,12.30
2010,05,07,10,46,12.30
2010,05,07,10,47,12.30
2010,05,07,10,48,12.30
2010,05,07,10,49,12.30
2010,05,07,10,50,12.30
2010,05,07,10,51,12.30
2010,05,07,10,52,12.30
2010,05,07,10,53,12.40
2010,05,07,10,54,12.40
2010,05,07,10,55,12.50
2010,05,07,10,56,12.50
2010,05,07,10,57,12.50
2010,05,07,10,58,12.60
2010,05,07,10,59,12.60
2010,05,07,11,00,12.60
2010,05,07,11,01,12.60
2010,05,07,11,02,12.60
2010,05,07,11,03,12.60
2010,05,07,11,04,12.60
2010,05,07,11,05,12.70
2010,05,07,11,06,12.70
2010,05,07,11,07,12.70
2010,05,07,11,08,12.70
2010,05,07,11,09,12.80
2010,05,07,11,10,12.80
2010,05,07,11,11,12.80
2010,05,07,11,12,12.80
2010,05,07,11,13,12.80
2010,05,07,11,14,12.80
2010,05,07,11,15,12.80
2010,05,07,11,16,12.90
2010,05,07,11,17,12.90
2010,05,07,11,18,12.90
2010,05,07,11,19,12.90
2010,05,07,11,20,12.90
2010,05,07,11,21,13.00
2010,05,07,11,22,13.00
2010,05,07,11,23,13.00
2010,05,07,11,24,13.10
2010,05,07,11,25,13.10
2010,05,07,11,26,13.10
2010,05,07,11,27,13.10
2010,05,07,11,28,13.00
2010,05,07,11,29,12.90
2010,05,07,11,30,12.80
2010,05,07,11,31,12.80
2010,05,07,11,32,12.80
2010,05,07,11,33,12.80
2010,05,07,11,34,12.80
2010,05,07,11,35,12.80
2010,05,07,11,36,12.80
2010,05,07,11,37,12.80
2010,05,07,11,38,12.90
2010,05,07,11,39,12.90
2010,05,07,11,40,12.90
2010,05,07,11,41,13.00
2010,05,07,11,42,13.00
2010,05,07,11,43,13.10
2010,05,07,11,44,13.10
2010,05,07,11,45,13.10
2010,05,07,11,46,13.20
2010,05,07,11,47,13.20
2010,05,07,11,48,13.20
2010,05,07,11,49,13.30
2010,05,07,11,50,13.30
2010,05,07,11,51,13.40
2010,05,07,11,52,13.40
2010,05,07,11,53,13.50
2010,05,07,11,54,13.60
2010,05,07,11,55,13.70
2010,05,07,11,56,13.70
2010,05,07,11,57,13.60
2010,05,07,11,58,13.50
2010,05,07,11,59,13.50
2010,05,07,12,00,13.40
2010,05,07,12,01,13.40
2010,05,07,12,02,13.40
2010,05,07,12,03,13.50
2010,05,07,12,04,13.50
2010,05,07,12,05,13.60
2010,05,07,12,06,13.60
2010,05,07,12,07,13.60
2010,05,07,12,08,13.60
2010,05,07,12,09,13.60
2010,05,07,12,10,13.60
2010,05,07,12,11,13.70
2010,05,07,12,12,13.60
2010,05,07,12,13,13.60
2010,05,07,12,14,13.70
2010,05,07,12,15,13.70
2010,05,07,12,16,13.70
2010,05,07,12,17,13.70
2010,05,07,12,18,13.70
2010,05,07,12,19,13.70
2010,05,07,12,20,13.70
2010,05,07,12,21,13.60
2010,05,07,12,22,13.50
2010,05,07,12,23,13.50
2010,05,07,12,24,13.50
2010,05,07,12,25,13.50
2010,05,07,12,26,13.60
2010,05,07,12,27,13.60
2010,05,07,12,28,13.70
2010,05,07,12,29,13.70
2010,05,07,12,30,13.70
2010,05,07,12,31,13.70
2010,05,07,12,32,13.70
2010,05,07,12,33,13.70
2010,05,07,12,34,13.70
2010,05,07,12,35,13.70
2010,05,07,12,36,13.70
2010,05,07,12,37,13.80
2010,05,07,12,38,13.80
2010,05,07,12,39,13.60
2010,05,07,12,40,13.60
2010,05,07,12,41,13.60
2010,05,07,12,42,13.60
2010,05,07,12,43,13.70
2010,05,07,12,44,13.80
2010,05,07,12,45,13.90
2010,05,07,12,46,13.90
2010,05,07,12,47,14.00
2010,05,07,12,48,14.10
2010,05,07,12,49,14.20
2010,05,07,12,50,14.20
2010,05,07,12,51,14.30
2010,05,07,12,52,14.30
2010,05,07,12,53,14.40
2010,05,07,12,54,14.40
2010,05,07,12,55,14.40
2010,05,07,12,56,14.50
2010,05,07,12,57,14.60
2010,05,07,12,58,14.60
2010,05,07,12,59,14.60
2010,05,07,13,00,14.60
2010,05,07,13,01,14.60
2010,05,07,13,02,14.60
2010,05,07,13,03,14.70
2010,05,07,13,04,14.80
2010,05,07,13,05,14.80
2010,05,07,13,06,14.90
2010,05,07,13,07,14.90
2010,05,07,13,08,14.90
2010,05,07,13,09,14.90
2010,05,07,13,10,14.90
2010,05,07,13,11,15.00
2010,05,07,13,12,15.00
2010,05,07,13,13,15.00
2010,05,07,13,14,15.00
2010,05,07,13,15,15.00
2010,05,07,13,16,15.00
2010,05,07,13,17,15.00
2010,05,07,13,18,15.10
2010,05,07,13,19,15.10
2010,05,07,13,20,15.10
2010,05,07,13,21,15.00
2010,05,07,13,22,15.00
2010,05,07,13,23,15.00
2010,05,07,13,24,15.00
2010,05,07,13,25,15.00
2010,05,07,13,26,15.00
2010,05,07,13,27,15.00
2010,05,07,13,28,15.00
2010,05,07,13,29,15.00
2010,05,07,13,30,15.00
2010,05,07,13,31,15.00
2010,05,07,13,32,15.00
2010,05,07,13,33,15.00
2010,05,07,13,34,15.00
2010,05,07,13,35,15.00
2010,05,07,13,36,15.00
2010,05,07,13,37,15.00
2010,05,07,13,38,15.00
2010,05,07,13,39,15.00
2010,05,07,13,40,14.80
2010,05,07,13,41,14.60
2010,05,07,13,42,14.60
2010,05,07,13,43,14.60
2010,05,07,13,44,14.60
2010,05,07,13,45,14.70
2010,05,07,13,46,14.70
2010,05,07,13,47,14.70
2010,05,07,13,48,14.80
2010,05,07,13,49,14.90
2010,05,07,13,50,15.00
2010,05,07,13,51,15.00
2010,05,07,13,52,15.00
2010,05,07,13,53,15.00
2010,05,07,13,54,15.00
2010,05,07,13,55,15.10
2010,05,07,13,56,15.30
2010,05,07,13,57,15.40
2010,05,07,13,58,15.50
2010,05,07,13,59,15.60
2010,05,07,14,00,15.70
2010,05,07,14,01,15.70
2010,05,07,14,02,15.80
2010,05,07,14,03,15.80
2010,05,07,14,04,15.80
2010,05,07,14,05,15.70
2010,05,07,14,06,15.70
2010,05,07,14,07,15.60
2010,05,07,14,08,15.50
2010,05,07,14,09,15.40
2010,05,07,14,10,15.40
2010,05,07,14,11,15.30
2010,05,07,14,12,15.20
2010,05,07,14,13,15.10
2010,05,07,14,14,15.00
2010,05,07,14,15,15.00
2010,05,07,14,16,15.00
2010,05,07,14,17,15.00
2010,05,07,14,18,15.00
2010,05,07,14,19,15.00
2010,05,07,14,20,15.00
2010,05,07,14,21,15.20
2010,05,07,14,22,15.30
2010,05,07,14,23,15.40
2010,05,07,14,24,15.50
2010,05,07,14,25,15.60
2010,05,07,14,26,15.70
2010,05,07,14,27,15.80
2010,05,07,14,28,15.80
2010,05,07,14,29,15.80
2010,05,07,14,30,15.80
2010,05,07,14,31,15.80
2010,05,07,14,32,15.80
2010,05,07,14,33,15.80
2010,05,07,14,34,15.80
2010,05,07,14,35,15.80
2010,05,07,14,36,15.90
2010,05,07,14,37,16.00
2010,05,07,14,38,16.00
2010,05,07,14,39,16.10
2010,05,07,14,40,16.10
2010,05,07,14,41,16.00
2010,05,07,14,42,16.00
2010,05,07,14,43,16.00
2010,05,07,14,44,16.00
2010,05,07,14,45,16.00
2010,05,07,14,46,15.90
2010,05,07,14,47,15.80
2010,05,07,14,48,15.80
2010,05,07,14,49,15.80
2010,05,07,14,50,15.80
2010,05,07,14,51,15.70
2010,05,07,14,52,15.80
2010,05,07,14,53,15.80
2010,05,07,14,54,15.80
2010,05,07,14,55,15.80
2010,05,07,14,56,15.90
2010,05,07,14,57,16.00
2010,05,07,14,58,16.10
2010,05,07,14,59,16.20
2010,05,07,15,00,16.30
2010,05,07,15,01,16.30
2010,05,07,15,02,16.30
2010,05,07,15,03,16.30
2010,05,07,15,04,16.30
2010,05,07,15,05,16.40
2010,05,07,15,06,16.40
2010,05,07,15,07,16.40
2010,05,07,15,08,16.40
2010,05,07,15,09,16.30
2010,05,07,15,10,16.30
2010,05,07,15,11,16.30
2010,05,07,15,12,16.20
2010,05,07,15,13,16.10
2010,05,07,15,14,16.10
2010,05,07,15,15,16.10
2010,05,07,15,16,16.10
2010,05,07,15,17,16.10
2010,05,07,15,18,16.20
2010,05,07,15,19,16.20
2010,05,07,15,20,16.10
2010,05,07,15,21,16.00
2010,05,07,15,22,15.90
2010,05,07,15,23,15.90
2010,05,07,15,24,15.80
2010,05,07,15,25,15.80
2010,05,07,15,26,15.80
2010,05,07,15,27,15.80
2010,05,07,15,28,15.80
2010,05,07,15,29,15.90
2010,05,07,15,30,16.00
2010,05,07,15,31,16.10
2010,05,07,15,32,16.20
2010,05,07,15,33,16.30
2010,05,07,15,34,16.40
2010,05,07,15,35,16.50
2010,05,07,15,36,16.60
2010,05,07,15,37,16.70
2010,05,07,15,38,16.70
2010,05,07,15,39,16.80
2010,05,07,15,40,16.80
2010,05,07,15,41,16.90
2010,05,07,15,42,17.00
2010,05,07,15,43,17.00
2010,05,07,15,44,17.00
2010,05,07,15,45,17.10
2010,05,07,15,46,17.10
2010,05,07,15,47,17.10
2010,05,07,15,48,17.10
2010,05,07,15,49,17.20
2010,05,07,15,50,17.20
2010,05,07,15,51,17.20
2010,05,07,15,52,17.20
2010,05,07,15,53,17.20
2010,05,07,15,54,17.20
2010,05,07,15,55,17.30
2010,05,07,15,56,17.30
2010,05,07,15,57,17.30
2010,05,07,15,58,17.30
2010,05,07,15,59,17.30
2010,05,07,16,00,17.40
2010,05,07,16,01,17.30
2010,05,07,16,02,17.30
2010,05,07,16,03,17.30
2010,05,07,16,04,17.30
2010,05,07,16,05,17.30
2010,05,07,16,06,17.20
2010,05,07,16,07,17.10
2010,05,07,16,08,17.10
2010,05,07,16,09,17.10
2010,05,07,16,10,17.10
2010,05,07,16,11,17.20
2010,05,07,16,12,17.20
2010,05,07,16,13,17.20
2010,05,07,16,14,17.30
2010,05,07,16,15,17.30
2010,05,07,16,16,17.30
2010,05,07,16,17,17.40
2010,05,07,16,18,17.40
2010,05,07,16,19,17.50
2010,05,07,16,20,17.60
2010,05,07,16,21,17.60
2010,05,07,16,22,17.70
2010,05,07,16,23,17.70
2010,05,07,16,24,17.70
2010,05,07,16,25,17.70
2010,05,07,16,26,17.70
2010,05,07,16,27,17.80
2010,05,07,16,28,17.80
2010,05,07,16,29,17.70
2010,05,07,16,30,17.70
2010,05,07,16,31,17.60
2010,05,07,16,32,17.50
2010,05,07,16,33,17.40
2010,05,07,16,34,17.40
2010,05,07,16,35,17.30
2010,05,07,16,36,17.30
2010,05,07,16,37,17.30
2010,05,07,16,38,17.40
2010,05,07,16,39,17.50
2010,05,07,16,40,17.50
2010,05,07,16,41,17.60
2010,05,07,16,42,17.60
2010,05,07,16,43,17.70
2010,05,07,16,44,17.70
2010,05,07,16,45,17.80
2010,05,07,16,46,17.90
2010,05,07,16,47,17.90
2010,05,07,16,48,18.00
2010,05,07,16,49,18.00
2010,05,07,16,50,18.10
2010,05,07,16,51,18.10
2010,05,07,16,52,18.10
2010,05,07,16,53,18.10
2010,05,07,16,54,18.10
2010,05,07,16,55,18.10
2010,05,07,16,56,18.10
2010,05,07,16,57,18.10
2010,05,07,16,58,18.10
2010,05,07,16,59,18.10
2010,05,07,17,00,18.00
2010,05,07,17,01,18.00
2010,05,07,17,02,17.90
2010,05,07,17,03,17.80
2010,05,07,17,04,17.80
2010,05,07,17,05,17.80
2010,05,07,17,06,17.70
2010,05,07,17,07,17.70
2010,05,07,17,08,17.70
2010,05,07,17,09,17.70
2010,05,07,17,10,17.70
2010,05,07,17,11,17.80
2010,05,07,17,12,17.80
2010,05,07,17,13,17.80
2010,05,07,17,14,17.80
2010,05,07,17,15,17.80
2010,05,07,17,16,17.80
2010,05,07,17,17,17.80
2010,05,07,17,18,17.80
2010,05,07,17,19,17.70
2010,05,07,17,20,17.70
2010,05,07,17,21,17.70
2010,05,07,17,22,17.70
2010,05,07,17,23,17.70
2010,05,07,17,24,17.70
2010,05,07,17,25,17.70
2010,05,07,17,26,17.70
2010,05,07,17,27,17.70
2010,05,07,17,28,17.80
2010,05,07,17,29,17.80
2010,05,07,17,30,17.80
2010,05,07,17,31,17.90
2010,05,07,17,32,17.90
2010,05,07,17,33,17.90
2010,05,07,17,34,17.90
2010,05,07,17,35,17.90
2010,05,07,17,36,17.90
2010,05,07,17,37,17.90
2010,05,07,17,38,17.90
2010,05,07,17,39,17.90
2010,05,07,17,40,17.90
2010,05,07,17,41,18.00
2010,05,07,17,42,18.10
2010,05,07,17,43,18.10
2010,05,07,17,44,18.10
2010,05,07,17,45,18.20
2010,05,07,17,46,18.20
2010,05,07,17,47,18.20
2010,05,07,17,48,18.30